Weather History for Fredericksburg, VA

Change the Weather History Date:

Thursday, July 4, 2013

  Actual Average (KNYG) Record (KNYG)
Temperature  
Mean Temperature 82 °F -  
Max Temperature 91 °F 83 °F 100 °F (2012)
Min Temperature 74 °F 65 °F 62 °F (2010)
Cooling Degree Days 18    
Growing Degree Days 32 (Base 50)    
Moisture  
Dew Point 72 °F    
Average Humidity 76    
Maximum Humidity 100    
Minimum Humidity 48    
Precipitation  
Precipitation 0.00 in - - ()
Sea Level Pressure  
Sea Level Pressure 30.23 in    
Wind  
Wind Speed 6 mph (South)    
Max Wind Speed 16 mph    
Max Gust Speed 18 mph    
Visibility 10 miles    
Events      
Averages and records for this station are not official NWS values.
T = Trace of Precipitation, MM = Missing Value Source: NWS Daily Summary

Daily Weather History Graph

Daily Weather History Graph

Search for Another Location

Airport:

Trip Planner

Search our weather history database for the weather conditions in past years. The results will help you decide how hot, cold, wet, or windy it might be!

Date:

Astronomy

Jul. 04, 2013 Rise Set
Actual Time 5:51 AM EDT 8:36 PM EDT
Civil Twilight 5:20 AM EDT 9:07 PM EDT
Nautical Twilight 4:41 AM EDT 9:47 PM EDT
Astronomical Twilight 3:56 AM EDT 10:31 PM EDT
Moon 3:05 AM EDT (7/4) 5:40 PM EDT (7/4)
Length of Visible Light 15h 47m
Length of Day
14h 44m
Waning Crescent, 11% of the Moon is Illuminated
Jul 4
Waning Crescent
Jul 8
New
Jul 15
First Quarter
Jul 22
Full
Jul 29
Last Quarter

Hourly Weather History & Observations

Time (EDT) Temp. Heat Index Dew Point Humidity Pressure Visibility Wind Dir Wind Speed Gust Speed Precip Events Conditions
12:15 AM 75.0 °F - 74.3 °F 98% 30.24 in 10.0 mi SSE 4.6 mph - N/A   Unknown
12:35 AM 74.7 °F - 74.5 °F 99% 30.23 in 10.0 mi SSE 3.5 mph - N/A   Unknown
12:55 AM 74.5 °F - 74.3 °F 99% 30.23 in 10.0 mi Calm Calm - N/A   Unknown
1:15 AM 74.3 °F - 74.3 °F 100% 30.24 in 10.0 mi Calm Calm - N/A   Unknown
1:35 AM 74.7 °F - 74.5 °F 99% 30.23 in 10.0 mi South 3.5 mph - N/A   Unknown
1:55 AM 74.8 °F - 74.7 °F 99% 30.23 in 10.0 mi Calm Calm - N/A   Unknown
2:15 AM 74.8 °F - 74.7 °F 99% 30.23 in 10.0 mi South 3.5 mph - N/A   Unknown
2:35 AM 74.7 °F - 74.5 °F 99% 30.22 in 10.0 mi South 3.5 mph - N/A   Unknown
2:55 AM 74.7 °F - 74.7 °F 100% 30.22 in 10.0 mi Calm Calm - N/A   Unknown
3:15 AM 74.5 °F - 74.5 °F 100% 30.22 in 10.0 mi Calm Calm - N/A   Unknown
3:35 AM 74.3 °F - 74.1 °F 99% 30.22 in 10.0 mi SSW 3.5 mph - N/A   Unknown
3:55 AM 74.3 °F - 73.9 °F 99% 30.22 in 10.0 mi South 4.6 mph - N/A   Unknown
4:15 AM 74.5 °F - 74.3 °F 99% 30.23 in 10.0 mi South 4.6 mph - N/A   Unknown
4:35 AM 74.8 °F - 74.3 °F 98% 30.23 in 10.0 mi South 5.8 mph - N/A   Unknown
4:55 AM 75.2 °F - 74.3 °F 97% 30.23 in 10.0 mi SSW 3.5 mph - N/A   Unknown
5:15 AM 75.2 °F - 74.3 °F 97% 30.23 in 10.0 mi SSW 3.5 mph - N/A   Unknown
5:35 AM 75.4 °F - 74.5 °F 97% 30.24 in 10.0 mi SSW 5.8 mph - N/A   Unknown
5:55 AM 75.6 °F - 74.3 °F 96% 30.24 in 7.0 mi SSW 8.1 mph - N/A   Unknown
6:15 AM 75.4 °F - 74.3 °F 96% 30.25 in 10.0 mi SW 6.9 mph - N/A   Unknown
6:35 AM 75.4 °F - 74.8 °F 98% 30.25 in 7.0 mi South 6.9 mph - N/A   Unknown
6:55 AM 75.4 °F - 74.7 °F 98% 30.25 in 10.0 mi South 8.1 mph - N/A   Unknown
7:15 AM 75.9 °F - 74.7 °F 96% 30.25 in 10.0 mi South 6.9 mph - N/A   Unknown
7:35 AM 76.5 °F - 74.7 °F 94% 30.26 in 10.0 mi South 10.4 mph - N/A   Unknown
7:55 AM 77.0 °F - 74.8 °F 93% 30.26 in 10.0 mi SSW 8.1 mph - N/A   Unknown
8:15 AM 78.1 °F - 74.7 °F 89% 30.26 in 10.0 mi South 8.1 mph - N/A   Unknown
8:35 AM 78.3 °F - 74.3 °F 88% 30.26 in 10.0 mi SSW 6.9 mph 17.3 mph N/A   Unknown
8:55 AM 78.8 °F - 74.3 °F 86% 30.27 in 10.0 mi SSW 8.1 mph - N/A   Unknown
9:15 AM 80.1 °F 84.8 °F 74.5 °F 83% 30.27 in 10.0 mi South 10.4 mph - N/A   Mostly Cloudy
9:35 AM 81.1 °F 86.8 °F 74.5 °F 80% 30.27 in 10.0 mi SSW 16.1 mph - N/A   Scattered Clouds
9:55 AM 82.4 °F 89.2 °F 75.0 °F 78% 30.26 in 10.0 mi SSW 10.4 mph 16.1 mph N/A   Scattered Clouds
10:15 AM 83.3 °F 89.0 °F 72.7 °F 70% 30.26 in 10.0 mi South 13.8 mph 18.4 mph N/A   Scattered Clouds
10:35 AM 82.6 °F 87.8 °F 72.5 °F 71% 30.26 in 10.0 mi SSW 9.2 mph 16.1 mph N/A   Scattered Clouds
10:55 AM 83.8 °F 89.8 °F 72.7 °F 69% 30.26 in 10.0 mi SW 13.8 mph - N/A   Mostly Cloudy
11:15 AM 84.2 °F 89.9 °F 72.3 °F 67% 30.26 in 10.0 mi SSW 12.7 mph - N/A   Scattered Clouds
11:35 AM 85.3 °F 91.5 °F 72.1 °F 65% 30.26 in 10.0 mi SW 11.5 mph 17.3 mph N/A   Scattered Clouds
11:55 AM 84.4 °F 90.3 °F 72.5 °F 67% 30.25 in 10.0 mi SW 5.8 mph - N/A   Mostly Cloudy
12:15 PM 86.9 °F 93.3 °F 72.1 °F 61% 30.25 in 10.0 mi SSW 11.5 mph - N/A   Scattered Clouds
12:35 PM 86.7 °F 93.3 °F 72.3 °F 62% 30.25 in 10.0 mi SSW 12.7 mph - N/A   Scattered Clouds
12:55 PM 87.8 °F 95.2 °F 73.0 °F 61% 30.25 in 10.0 mi South 8.1 mph - N/A   Scattered Clouds
1:15 PM 88.2 °F 93.7 °F 70.5 °F 56% 30.24 in 10.0 mi South 10.4 mph 18.4 mph N/A   Scattered Clouds
1:35 PM 87.6 °F 93.9 °F 71.8 °F 59% 30.24 in 10.0 mi South 11.5 mph 16.1 mph N/A   Scattered Clouds
1:55 PM 89.2 °F 94.9 °F 70.9 °F 54% 30.24 in 10.0 mi South 11.5 mph 17.3 mph N/A   Scattered Clouds
2:15 PM 89.8 °F 94.2 °F 68.9 °F 50% 30.24 in 10.0 mi South 16.1 mph - N/A   Scattered Clouds
2:35 PM 89.8 °F 94.2 °F 68.7 °F 50% 30.23 in 10.0 mi SSW 9.2 mph - N/A   Scattered Clouds
2:55 PM 89.2 °F 93.6 °F 69.1 °F 51% 30.22 in 10.0 mi SSW 10.4 mph - N/A   Clear
3:15 PM 90.5 °F 96.0 °F 70.2 °F 51% 30.21 in 10.0 mi SW 11.5 mph - N/A   Scattered Clouds
3:35 PM 90.5 °F 95.5 °F 69.4 °F 50% 30.21 in 10.0 mi South 9.2 mph - N/A   Scattered Clouds
3:55 PM 90.0 °F 95.4 °F 70.0 °F 52% 30.20 in 10.0 mi South 8.1 mph - N/A   Scattered Clouds
4:15 PM 90.9 °F 96.2 °F 69.8 °F 50% 30.20 in 10.0 mi SW 9.2 mph - N/A   Scattered Clouds
4:35 PM 91.2 °F 96.0 °F 68.9 °F 48% 30.19 in 10.0 mi South 8.1 mph - N/A   Scattered Clouds
4:55 PM 88.9 °F 93.4 °F 69.3 °F 52% 30.19 in 10.0 mi South 8.1 mph - N/A   Scattered Clouds
5:15 PM 89.4 °F 93.5 °F 68.4 °F 50% 30.19 in 10.0 mi South 9.2 mph - N/A   Clear
5:35 PM 91.0 °F 96.1 °F 69.3 °F 49% 30.17 in 10.0 mi South 11.5 mph - N/A   Scattered Clouds
5:55 PM 89.6 °F 94.7 °F 69.8 °F 52% 30.17 in 10.0 mi South 8.1 mph - N/A   Clear
6:15 PM 90.5 °F 95.5 °F 69.6 °F 50% 30.17 in 10.0 mi SSE 10.4 mph - N/A   Clear
6:35 PM 90.3 °F 95.7 °F 69.8 °F 51% 30.18 in 10.0 mi South 8.1 mph - N/A   Clear
6:55 PM 89.6 °F 95.7 °F 70.7 °F 54% 30.18 in 10.0 mi South 8.1 mph - N/A   Scattered Clouds
7:15 PM 88.3 °F 93.6 °F 70.3 °F 55% 30.18 in 10.0 mi South 9.2 mph - N/A   Clear
7:35 PM 87.3 °F 93.2 °F 71.2 °F 59% 30.19 in 10.0 mi South 6.9 mph - N/A   Clear
7:55 PM 86.5 °F 92.5 °F 71.6 °F 61% 30.18 in 10.0 mi SSE 6.9 mph - N/A   Clear
8:15 PM 85.1 °F 91.1 °F 72.0 °F 65% 30.18 in 10.0 mi SSE 6.9 mph - N/A   Clear
8:35 PM 83.7 °F 88.9 °F 71.8 °F 67% 30.19 in 10.0 mi SSE 6.9 mph - N/A   Clear
8:55 PM 81.9 °F 86.6 °F 72.0 °F 72% 30.19 in 10.0 mi South 3.5 mph - N/A   Clear
9:15 PM 81.5 °F 86.3 °F 72.3 °F 74% 30.20 in 10.0 mi South 4.6 mph - N/A   Clear
9:35 PM 79.7 °F - 72.0 °F 77% 30.20 in 10.0 mi North - - N/A   Clear
9:55 PM 79.0 °F - 71.8 °F 78% 30.21 in 10.0 mi North - - N/A   Clear
10:15 PM 79.2 °F - 72.1 °F 79% 30.21 in 10.0 mi North - - N/A   Clear
10:35 PM 78.8 °F - 72.0 °F 79% 30.22 in 10.0 mi North - - N/A   Clear
10:55 PM 78.4 °F - 72.5 °F 82% 30.22 in 10.0 mi North - - N/A   Clear
11:15 PM 77.0 °F - 71.8 °F 84% 30.22 in 10.0 mi North - - N/A   Clear
11:35 PM 76.5 °F - 71.8 °F 85% 30.22 in 10.0 mi North - - N/A   Clear
11:55 PM 76.8 °F - 71.8 °F 84% 30.22 in 10.0 mi North - - N/A   Clear